Location: Marysville Observatory
(48.1092°N, 122.1645°W)
Time: 23:13:08
(UTC-07:00)

Amateur Radio Satellites - All Passes

Search period start: 02 July 2015 22:43
Search period end: 03 July 2015 22:43
Location: Marysville Observatory, 48.1092°N, 122.1645°W

Satellite Date Start Highest point End Downlink Frequencies (MHz)
Time Altitude Azimuth
AAUSAT CUBESAT 2 02 Jul 22:44:55 22:46:56 13° 273° (W) 22:48:45 437.432
Oscar 11 02 Jul 22:45:08 22:48:47 26° 267° (W) 22:52:22 145.826/435.025
AISAT 02 Jul 22:47:02 22:51:21 52° 71° (ENE) 22:55:44 437.250
SPROUT 02 Jul 22:48:09 22:48:39 10° 57° (ENE) 22:49:22 437.525
TIGRISAT 02 Jul 22:51:43 22:54:46 19° 91° (E) 22:57:57 435.000
M-CUBED/EXP-1 PRIME 02 Jul 22:54:12 22:57:59 38° 296° (WNW) 23:02:01 437.505
CINEMA 3 02 Jul 23:00:31 23:02:00 11° 274° (W) 23:03:13 145.822/145.860
PCSat 02 Jul 23:04:03 23:07:14 16° 24° (NNE) 23:10:30 145.827
QB50P1 02 Jul 23:05:02 23:05:59 11° 86° (E) 23:07:11 145.935-145.965
HUMSAT D 02 Jul 23:05:30 23:09:31 52° 260° (W) 23:13:33 437.325/437.525
FUNcube-1 02 Jul 23:09:23 23:12:51 24° 267° (W) 23:16:13 145.935
CUBEBUG 1 02 Jul 23:10:50 23:15:07 48° 70° (ENE) 23:19:25 437.445
DELFI C3 02 Jul 23:12:04 23:14:53 18° 270° (W) 23:17:36 145.870
ESTCUBE 1 02 Jul 23:12:17 23:16:45 59° 72° (ENE) 23:21:14 437.505/2401.250
SO-50 02 Jul 23:15:45 23:18:09 13° 13° (NNE) 23:20:37 436.795
UWE-3 02 Jul 23:17:55 23:20:39 16° 271° (W) 23:23:13 435.000/436.395/437.385
NANOSAT C BR1 02 Jul 23:18:47 23:21:11 15° 89° (E) 23:23:44 145.865
DUCHIFAT 1 02 Jul 23:26:05 23:28:52 18° 90° (E) 23:31:46 145.980
50 SAT 02 Jul 23:27:05 23:30:50 55° 259° (W) 23:34:38 437.505
POLYITAN 1 02 Jul 23:28:35 23:31:39 20° 91° (E) 23:34:47 437.675
UNISAT 6 02 Jul 23:29:54 23:34:05 45° 99° (E) 23:38:21 437.425
TISAT 1 02 Jul 23:34:18 23:37:17 19° 63° (ENE) 23:40:22 437.305
VELOX 1 02 Jul 23:36:56 23:41:19 54° 259° (W) 23:45:45 145.980
BUGSAT 1 02 Jul 23:51:00 23:54:04 21° 92° (E) 23:57:10 437.445
Cosmos 2499 02 Jul 23:51:52 23:58:54 39° 272° (W) 00:06:18 435.465 / 435.565
DX 1 02 Jul 23:54:37 23:58:02 21° 268° (W) 00:01:22 434.975-435.025
AUBIESAT-1 02 Jul 23:57:51 23:59:50 13° 305° (NW) 00:01:42 437.475
QB50P2 02 Jul 23:57:59 00:01:57 38° 97° (E) 00:05:55 145.880/145.840
POPSAT HIP 1 02 Jul 23:59:12 00:03:09 38° 97° (E) 00:07:05 437.405
ANTELSAT 03 Jul 00:14:21 00:18:40 66° 287° (WNW) 00:23:03 437.575/2403.000
SPROUT 03 Jul 00:19:44 00:24:02 74° 74° (ENE) 00:28:21 437.525
UKube-1 03 Jul 00:19:44 00:22:00 13° 272° (W) 00:24:05 .
AISAT 03 Jul 00:24:59 00:28:16 19° 269° (W) 00:31:28 437.250
TIGRISAT 03 Jul 00:27:37 00:31:50 50° 289° (WNW) 00:36:05 435.000
Cosmos 2491 03 Jul 00:28:35 00:32:15 13° 44° (NE) 00:36:23 435.465 / 435.565
QB50P1 03 Jul 00:38:18 00:42:32 83° 285° (WNW) 00:46:44 145.935-145.965
BEESAT 03 Jul 00:45:40 00:49:13 22° 62° (ENE) 00:52:55 436.000
PCSat 03 Jul 00:46:46 00:52:02 48° 48° (NE) 00:57:18 145.827
CUBEBUG 1 03 Jul 00:48:24 00:51:45 20° 269° (W) 00:55:01 437.445
ESTCUBE 1 03 Jul 00:50:56 00:54:02 17° 271° (W) 00:57:02 437.505/2401.250
NANOSAT C BR1 03 Jul 00:53:18 00:57:27 59° 288° (WNW) 01:01:34 145.865
SO-50 03 Jul 00:55:48 01:00:15 31° 37° (NE) 01:04:39 436.795
SWISSCUBE 03 Jul 01:00:17 01:04:26 30° 65° (ENE) 01:08:39 437.505
DUCHIFAT 1 03 Jul 01:00:56 01:05:01 50° 289° (WNW) 01:09:03 145.980
RS-15 03 Jul 01:02:04 01:06:11 13° 95° (E) 01:11:14 29.354- 29.394
POLYITAN 1 03 Jul 01:03:46 01:07:48 45° 290° (WNW) 01:11:49 437.675
ITUPSAT 1 03 Jul 01:04:44 01:08:53 30° 65° (ENE) 01:13:06 437.325
UNISAT 6 03 Jul 01:07:15 01:10:39 22° 296° (WNW) 01:14:00 437.425
TISAT 1 03 Jul 01:08:36 01:12:45 50° 260° (W) 01:16:54 437.305
BUGSAT 1 03 Jul 01:25:53 01:29:43 39° 291° (WNW) 01:33:30 437.445
QB50P2 03 Jul 01:34:15 01:37:40 24° 295° (WNW) 01:41:01 145.880/145.840
POPSAT HIP 1 03 Jul 01:35:26 01:38:51 24° 295° (WNW) 01:42:11 437.405
Oscar 19 03 Jul 01:36:58 01:40:32 19° 89° (E) 01:44:14 437.125/150
STARS 03 Jul 01:50:03 01:51:04 11° 56° (ENE) 01:52:17 437.465
SPROUT 03 Jul 01:58:39 02:00:42 13° 273° (W) 02:02:33 437.525
QB50P1 03 Jul 02:16:32 02:17:44 11° 302° (WNW) 02:18:47 145.935-145.965
BEESAT 03 Jul 02:22:03 02:26:44 55° 260° (W) 02:31:28 436.000
Cosmos 2491 03 Jul 02:23:24 02:31:55 52° 71° (ENE) 02:40:24 435.465 / 435.565
KKS-1 03 Jul 02:26:41 02:30:42 34° 67° (ENE) 02:34:46 437.445
PCSat 03 Jul 02:30:29 02:35:19 32° 248° (WSW) 02:40:03 145.827
SO-50 03 Jul 02:36:12 02:41:06 57° 237° (WSW) 02:45:54 436.795
SWISSCUBE 03 Jul 02:37:44 02:42:12 37° 263° (W) 02:46:40 437.505
ITUPSAT 1 03 Jul 02:42:13 02:46:41 37° 263° (W) 02:51:10 437.325
AIST 1 03 Jul 02:58:20 03:02:35 47° 75° (ENE) 03:06:47
YUBILEINY 03 Jul 03:03:25 03:10:47 34° 84° (E) 03:18:20 435.215
RS-15 03 Jul 03:05:40 03:16:12 60° 117° (ESE) 03:27:11 29.354- 29.394
Gurwin Techsat 1B 03 Jul 03:07:30 03:12:26 37° 96° (E) 03:17:22 435.225
Oscar 19 03 Jul 03:15:18 03:20:24 64° 289° (WNW) 03:25:28 437.125/150
JAS-2 03 Jul 03:20:00 03:24:32 20° 88° (E) 03:29:39 435.910
STARS 03 Jul 03:22:25 03:26:48 76° 74° (ENE) 03:31:13 437.465
ITAMSAT 1 03 Jul 03:23:08 03:28:12 48° 99° (E) 03:33:15 435.822/435.867
AO-7 03 Jul 03:49:53 03:55:42 21° 87° (E) 04:01:50 29.400- 29.500
KKS-1 03 Jul 04:03:29 04:07:23 29° 265° (W) 04:11:15 437.445
MOZHAYETS 4 03 Jul 04:08:34 04:12:49 40° 69° (ENE) 04:17:09
Cosmos 2491 03 Jul 04:20:38 04:28:41 41° 273° (W) 04:36:33 435.465 / 435.565
AIST 1 03 Jul 04:36:48 04:39:54 19° 274° (W) 04:42:53
Cosmos 2504 03 Jul 04:37:29 04:39:00 11° 74° (ENE) 04:41:01 435.465 / 435.565
Gurwin Techsat 1B 03 Jul 04:47:34 04:52:24 35° 295° (WNW) 04:57:10 435.225
HORYU 2 03 Jul 04:51:02 04:55:24 51° 100° (E) 04:59:46 437.375
Oscar 19 03 Jul 04:57:07 04:58:53 11° 307° (NW) 05:00:25 437.125/150
YUBILEINY 03 Jul 04:58:34 05:07:10 63° 285° (WNW) 05:15:49 435.215
STARS 03 Jul 05:01:43 05:03:52 13° 273° (W) 05:05:48 437.465
ITAMSAT 1 03 Jul 05:03:04 05:07:31 28° 297° (WNW) 05:11:51 435.822/435.867
JAS-2 03 Jul 05:03:55 05:10:19 86° 286° (WNW) 05:17:33 435.910
RS-15 03 Jul 05:18:09 05:28:55 55° 324° (NW) 05:40:07 29.354- 29.394
AO-7 03 Jul 05:41:23 05:49:50 86° 109° (ESE) 05:58:13 29.400- 29.500
MOZHAYETS 4 03 Jul 05:46:21 05:50:13 26° 268° (W) 05:54:01
CUBESAT XI-V 03 Jul 06:07:34 06:12:11 57° 72° (ENE) 06:16:51 437.345
Cubesat XI-IV 03 Jul 06:21:34 06:25:05 18° 88° (E) 06:28:46 437.490
Cosmos 2504 03 Jul 06:23:56 06:31:00 63° 94° (E) 06:38:07 435.465 / 435.565
STRAND 1 03 Jul 06:26:35 06:31:17 38° 66° (ENE) 06:36:03 437.568
HORYU 2 03 Jul 06:28:22 06:31:44 21° 298° (WNW) 06:35:00 437.375
JAS-2 03 Jul 06:50:19 06:54:49 20° 303° (WNW) 06:59:26 435.910
PRISM 03 Jul 06:59:47 07:03:55 65° 73° (ENE) 07:08:06 437.425
YUBILEINY 03 Jul 07:01:04 07:06:19 16° 312° (NW) 07:11:11 435.215
CUTE-I 03 Jul 07:26:40 07:32:00 61° 101° (E) 07:37:18 437.470
CUSAT 1 03 Jul 07:27:56 07:32:15 20° 92° (E) 07:36:03 437.405
RS-15 03 Jul 07:34:25 07:44:24 34° 356° (N) 07:54:47 29.354- 29.394
AO-7 03 Jul 07:34:58 07:41:51 29° 310° (NW) 07:48:31 29.400- 29.500
AUBIESAT-1 03 Jul 07:39:36 07:42:07 20° 59° (ENE) 07:44:47 437.475
GONETS M04 03 Jul 07:44:02 07:47:32 14° 72° (ENE) 07:51:38
CUBESAT XI-V 03 Jul 07:46:37 07:50:02 19° 271° (W) 07:53:21 437.345
BEESAT 3 03 Jul 07:56:25 08:00:03 32° 119° (ESE) 08:03:46 437.485
Cubesat XI-IV 03 Jul 08:00:27 08:05:50 73° 288° (WNW) 08:11:11 437.490
STRAND 1 03 Jul 08:05:52 08:10:33 33° 265° (W) 08:15:12 437.568
BEESAT 2 03 Jul 08:06:34 08:10:15 33° 119° (ESE) 08:14:00 435.950
M-CUBED/EXP-1 PRIME 03 Jul 08:11:41 08:14:55 52° 66° (ENE) 08:18:18 437.505
Cosmos 2504 03 Jul 08:18:56 08:25:03 28° 297° (WNW) 08:31:04 435.465 / 435.565
DANDE 03 Jul 08:19:40 08:26:20 43° 96° (E) 08:31:35 436.750
O/OREOS (USA 219) 03 Jul 08:30:45 08:35:12 76° 114° (ESE) 08:39:41 437.305
PRISM 03 Jul 08:37:36 08:39:52 14° 272° (W) 08:41:58 437.425
ISS 03 Jul 08:49:13 08:51:21 17° 138° (SE) 08:53:32 145.825
GOMX 1 03 Jul 09:02:07 09:06:03 36° 96° (E) 09:09:55 467.674
CUTE-I 03 Jul 09:07:28 09:11:43 24° 300° (WNW) 09:15:52 437.470
CUSAT 1 03 Jul 09:08:23 09:14:46 65° 284° (WNW) 09:19:33 437.405
COMPASS 1 03 Jul 09:11:42 09:14:35 18° 90° (E) 09:17:35 437.405
CINEMA 3 03 Jul 09:12:09 09:14:18 14° 88° (E) 09:16:37 145.822/145.860
AUBIESAT-1 03 Jul 09:13:45 09:16:46 31° 258° (WSW) 09:19:52 437.475
AIST 2 03 Jul 09:15:42 09:19:44 43° 121° (ESE) 09:23:49 435.215
CUTE 1.7 + AOD 2 03 Jul 09:16:43 09:20:30 30° 95° (E) 09:24:19 437.475
BRITE-PL 03 Jul 09:19:39 09:24:07 90° 285° (WNW) 09:28:19 437.365/2234.400
CANX-2 03 Jul 09:19:46 09:23:42 35° 96° (E) 09:27:41 2200.000
VERMONT LUNAR 03 Jul 09:21:32 09:23:19 14° 164° (SSE) 09:25:09 437.305
HO-68 03 Jul 09:24:51 09:31:38 44° 98° (E) 09:38:26 435.675
GONETS M04 03 Jul 09:34:10 09:42:45 63° 93° (E) 09:51:22
BEESAT 3 03 Jul 09:34:11 09:37:59 35° 318° (NW) 09:41:48 437.485
ANTELSAT 03 Jul 09:41:31 09:44:39 21° 64° (ENE) 09:47:52 437.575/2403.000
Cubesat XI-IV 03 Jul 09:42:21 09:45:07 14° 306° (NW) 09:47:41 437.490
BEESAT 2 03 Jul 09:44:27 09:48:18 35° 318° (NW) 09:52:08 435.950
M-CUBED/EXP-1 PRIME 03 Jul 09:49:03 09:50:14 11° 266° (W) 09:51:17 437.505
RS-15 03 Jul 09:49:25 10:00:19 46° 29° (NNE) 10:11:46 29.354- 29.394
DOVE 4 03 Jul 09:52:35 09:56:47 76° 102° (ESE) 10:00:56 437.250
TIGRISAT 03 Jul 09:54:02 09:57:33 26° 66° (ENE) 10:01:06 435.000
QB50P1 03 Jul 10:00:42 10:03:02 15° 61° (ENE) 10:05:31 145.935-145.965
DANDE 03 Jul 10:03:08 10:09:33 37° 288° (WNW) 10:14:32 436.750
SEEDS 03 Jul 10:06:54 10:11:11 81° 105° (ESE) 10:15:27 437.485
CUBEBUG 2 03 Jul 10:08:27 10:11:59 26° 94° (E) 10:15:38 437.445
O/OREOS (USA 219) 03 Jul 10:12:10 10:15:14 17° 315° (NW) 10:18:11 437.305
NANOSAT C BR1 03 Jul 10:14:41 10:17:40 20° 63° (ENE) 10:20:47 145.865
ZACube-1 03 Jul 10:16:45 10:19:54 21° 91° (E) 10:23:11 437.345
AAUSAT CUBESAT 2 03 Jul 10:21:21 10:25:35 80° 102° (ESE) 10:29:48 437.432
DUCHIFAT 1 03 Jul 10:21:48 10:25:03 22° 64° (ENE) 10:28:21 145.980
ISS 03 Jul 10:24:07 10:27:22 83° 159° (SSE) 10:30:38 145.825
POLYITAN 1 03 Jul 10:24:59 10:28:25 25° 65° (ENE) 10:31:54 437.675
Oscar 11 03 Jul 10:27:57 10:32:07 44° 98° (E) 10:36:17 145.826/435.025
UNISAT 6 03 Jul 10:32:21 10:36:35 62° 73° (ENE) 10:40:49 437.425
GOMX 1 03 Jul 10:40:36 10:44:06 24° 295° (WNW) 10:47:26 467.674
Cosmos 2499 03 Jul 10:40:47 10:46:51 33° 86° (E) 10:53:08 435.465 / 435.565
BUGSAT 1 03 Jul 10:44:17 10:47:44 25° 66° (ENE) 10:51:14 437.445
DELFI C3 03 Jul 10:45:58 10:49:56 47° 99° (E) 10:53:52 145.870
HUMSAT D 03 Jul 10:46:25 10:49:21 19° 91° (E) 10:52:24 437.325/437.525
COMPASS 1 03 Jul 10:46:28 10:50:34 49° 289° (WNW) 10:54:39 437.405
CINEMA 3 03 Jul 10:47:53 10:52:00 61° 287° (WNW) 10:56:08 145.822/145.860
CUTE 1.7 + AOD 2 03 Jul 10:52:37 10:56:24 30° 292° (WNW) 11:00:08 437.475
FUNcube-1 03 Jul 10:52:54 10:56:57 46° 99° (E) 11:01:04 145.935
QB50P2 03 Jul 10:54:08 10:58:12 47° 71° (ENE) 11:02:18 145.880/145.840
AIST 2 03 Jul 10:54:37 10:58:27 30° 320° (NW) 11:02:15 435.215
POPSAT HIP 1 03 Jul 10:55:12 10:59:16 46° 71° (ENE) 11:03:21 437.405
CANX-2 03 Jul 10:55:55 10:59:31 26° 294° (WNW) 11:03:05 2200.000
PHONESAT 2.4 03 Jul 10:57:03 10:59:19 17° 164° (SSE) 11:01:37 2401.200-2431.200
CUSAT 1 03 Jul 10:57:08 10:57:58 10° 300° (WNW) 10:58:29 437.405
VERMONT LUNAR 03 Jul 10:57:12 10:59:38 21° 180° (S) 11:02:04 437.305
BRITE-PL 03 Jul 11:00:12 11:01:57 12° 303° (WNW) 11:03:30 437.365/2234.400
50 SAT 03 Jul 11:00:35 11:02:23 13° 88° (E) 11:04:21 437.505
UWE-3 03 Jul 11:01:53 11:06:05 75° 101° (E) 11:10:21 435.000/436.395/437.385
HO-68 03 Jul 11:12:41 11:19:25 45° 298° (WNW) 11:26:05 435.675
BEESAT 3 03 Jul 11:15:54 11:17:07 11° 340° (NNW) 11:18:16 437.485
ANTELSAT 03 Jul 11:17:02 11:21:10 46° 261° (W) 11:25:19 437.575/2403.000
VELOX 1 03 Jul 11:24:21 11:27:45 22° 92° (E) 11:31:14 145.980
BEESAT 2 03 Jul 11:26:15 11:27:33 11° 340° (NNW) 11:28:46 435.950
TIGRISAT 03 Jul 11:30:14 11:34:12 36° 263° (W) 11:38:08 435.000
DOVE 4 03 Jul 11:32:02 11:34:02 13° 301° (WNW) 11:35:52 437.250
GONETS M04 03 Jul 11:32:19 11:40:15 35° 296° (WNW) 11:48:02
QB50P1 03 Jul 11:34:12 11:38:26 70° 258° (WSW) 11:42:41 145.935-145.965
DX 1 03 Jul 11:38:04 11:42:19 50° 100° (E) 11:46:33 434.975-435.025
SEEDS 03 Jul 11:44:19 11:46:26 13° 300° (WNW) 11:48:22 437.485
CUBEBUG 2 03 Jul 11:44:59 11:48:45 33° 292° (WNW) 11:52:32 437.445
NANOSAT C BR1 03 Jul 11:49:05 11:53:13 49° 261° (W) 11:57:21 145.865
ZACube-1 03 Jul 11:52:30 11:56:29 42° 289° (WNW) 12:00:30 437.345
DUCHIFAT 1 03 Jul 11:56:35 12:00:38 42° 262° (W) 12:04:40 145.980
AAUSAT CUBESAT 2 03 Jul 11:58:34 12:00:39 13° 300° (WNW) 12:02:34 437.432
POLYITAN 1 03 Jul 12:00:12 12:04:10 37° 263° (W) 12:08:07 437.675
ISS 03 Jul 12:00:50 12:03:58 43° 355° (N) 12:07:05 145.825
UKube-1 03 Jul 12:00:50 12:05:12 79° 104° (ESE) 12:09:32 .
RS-15 03 Jul 12:02:18 12:13:57 80° 236° (SW) 12:26:04 29.354- 29.394
Oscar 11 03 Jul 12:04:38 12:08:05 23° 295° (WNW) 12:11:25 145.826/435.025
AISAT 03 Jul 12:10:25 12:14:49 63° 101° (E) 12:19:12 437.250
UNISAT 6 03 Jul 12:11:20 12:13:52 15° 272° (W) 12:16:13 437.425
BUGSAT 1 03 Jul 12:19:09 12:23:05 36° 263° (W) 12:26:58 437.445
HUMSAT D 03 Jul 12:21:22 12:25:21 46° 289° (WNW) 12:29:21 437.325/437.525
DELFI C3 03 Jul 12:21:47 12:24:42 19° 296° (WNW) 12:27:33 145.870
FUNcube-1 03 Jul 12:29:54 12:33:03 20° 296° (WNW) 12:36:07 145.935
QB50P2 03 Jul 12:31:14 12:34:22 19° 269° (W) 12:37:24 145.880/145.840
CUBEBUG 1 03 Jul 12:32:12 12:36:34 59° 101° (E) 12:40:50 437.445
POPSAT HIP 1 03 Jul 12:32:16 12:35:24 19° 269° (W) 12:38:27 437.405
Cosmos 2499 03 Jul 12:32:55 12:39:45 51° 288° (WNW) 12:46:44 435.465 / 435.565
50 SAT 03 Jul 12:33:35 12:37:26 60° 287° (WNW) 12:41:18 437.505
PHONESAT 2.4 03 Jul 12:33:54 12:36:43 23° 181° (S) 12:39:32 2401.200-2431.200
VERMONT LUNAR 03 Jul 12:34:13 12:35:57 14° 197° (SSW) 12:37:40 437.305
AIST 2 03 Jul 12:37:18 12:38:21 11° 343° (NNW) 12:39:19 435.215
ESTCUBE 1 03 Jul 12:38:00 12:42:35 79° 103° (ESE) 12:47:07 437.505/2401.250
UWE-3 03 Jul 12:39:58 12:42:09 14° 299° (WNW) 12:44:12 435.000/436.395/437.385
TISAT 1 03 Jul 12:50:07 12:53:08 19° 91° (E) 12:56:12 437.305
Gurwin Techsat 1B 03 Jul 12:55:18 12:58:08 15° 55° (NE) 13:01:10 435.225
Oscar 19 03 Jul 12:56:57 13:01:41 40° 67° (ENE) 13:06:29 437.125/150
VELOX 1 03 Jul 13:00:19 13:04:33 44° 291° (WNW) 13:08:43 145.980
HO-68 03 Jul 13:02:56 13:05:31 12° 319° (NW) 13:07:49 435.675
AO-7 03 Jul 13:05:42 13:09:15 14° 34° (NNE) 13:13:06 29.400- 29.500
ITAMSAT 1 03 Jul 13:07:35 13:10:57 18° 57° (ENE) 13:14:29 435.822/435.867
YUBILEINY 03 Jul 13:08:05 13:14:15 21° 54° (NE) 13:20:44 435.215
DX 1 03 Jul 13:15:01 13:18:17 20° 298° (WNW) 13:21:25 434.975-435.025
ISS 03 Jul 13:37:27 13:40:41 58° 16° (NNE) 13:43:53 145.825
UKube-1 03 Jul 13:38:28 13:40:48 14° 301° (WNW) 13:42:59 .
SPROUT 03 Jul 13:38:45 13:43:04 89° 101° (E) 13:47:20 437.525
JAS-2 03 Jul 13:40:57 13:41:56 11° 49° (NE) 13:43:10 435.910
Cosmos 2491 03 Jul 13:41:26 13:42:19 10° 69° (ENE) 13:43:54 435.465 / 435.565
AISAT 03 Jul 13:48:02 13:50:59 17° 299° (WNW) 13:53:48 437.250
CUBEBUG 1 03 Jul 14:09:31 14:12:31 18° 299° (WNW) 14:15:23 437.445
PHONESAT 2.4 03 Jul 14:11:56 14:14:07 16° 197° (SSW) 14:16:15 2401.200-2431.200
RS-15 03 Jul 14:16:05 14:24:55 24° 258° (WSW) 14:33:25 29.354- 29.394
ESTCUBE 1 03 Jul 14:16:15 14:18:55 15° 301° (WNW) 14:21:26 437.505/2401.250
BEESAT 03 Jul 14:18:51 14:23:00 29° 94° (E) 14:27:12 436.000
HORYU 2 03 Jul 14:20:05 14:21:04 11° 56° (NE) 14:22:14 437.375
TISAT 1 03 Jul 14:25:08 14:29:10 45° 290° (WNW) 14:33:09 437.305
Gurwin Techsat 1B 03 Jul 14:32:04 14:37:23 82° 74° (ENE) 14:42:45 435.225
Cosmos 2499 03 Jul 14:33:41 14:35:15 10° 314° (NW) 14:36:23 435.465 / 435.565
SWISSCUBE 03 Jul 14:34:01 14:38:37 43° 98° (E) 14:43:11 437.505
BEESAT 3 03 Jul 14:34:14 14:36:39 15° 28° (NNE) 14:39:07 437.485
Oscar 19 03 Jul 14:36:35 14:41:10 31° 266° (W) 14:45:41 437.125/150
ITUPSAT 1 03 Jul 14:38:46 14:43:22 43° 98° (E) 14:47:58 437.325
ITAMSAT 1 03 Jul 14:44:39 14:49:53 81° 254° (WSW) 14:55:11 435.822/435.867
BEESAT 2 03 Jul 14:44:50 14:47:18 15° 28° (NNE) 14:49:50 435.950
AO-7 03 Jul 14:52:21 14:59:58 43° 57° (ENE) 15:07:43 29.400- 29.500
YUBILEINY 03 Jul 15:04:00 15:12:48 81° 79° (E) 15:21:37 435.215
STARS 03 Jul 15:11:16 15:12:00 10° 85° (E) 15:13:00 437.465
ISS 03 Jul 15:13:59 15:17:00 36° 214° (SW) 15:20:00 145.825
SPROUT 03 Jul 15:16:43 15:18:32 12° 302° (WNW) 15:20:11 437.525
JAS-2 03 Jul 15:20:51 15:25:55 59° 70° (ENE) 15:31:19 435.910
Cosmos 2491 03 Jul 15:28:51 15:37:14 52° 90° (E) 15:45:42 435.465 / 435.565
AIST 1 03 Jul 15:32:01 15:35:30 24° 88° (E) 15:39:04
PCSat 03 Jul 15:33:40 15:37:20 19° 108° (ESE) 15:41:11 145.827
KKS-1 03 Jul 15:50:17 15:54:29 41° 98° (E) 15:58:41 437.445
HORYU 2 03 Jul 15:52:35 15:56:59 74° 74° (ENE) 16:01:25 437.375
AIST 2 03 Jul 15:56:06 15:59:07 19° 31° (NNE) 16:02:09 435.215
BEESAT 03 Jul 15:56:29 16:00:57 39° 293° (WNW) 16:05:22 436.000
Cosmos 2504 03 Jul 16:10:59 16:17:26 30° 64° (ENE) 16:24:23 435.465 / 435.565
BEESAT 3 03 Jul 16:11:19 16:15:24 65° 49° (NE) 16:19:24 437.485
SWISSCUBE 03 Jul 16:12:13 16:16:18 27° 296° (WNW) 16:20:17 437.505
Gurwin Techsat 1B 03 Jul 16:14:52 16:18:08 16° 274° (W) 16:21:11 435.225
ITUPSAT 1 03 Jul 16:17:01 16:21:06 27° 296° (WNW) 16:25:06 437.325
BEESAT 2 03 Jul 16:22:03 16:26:10 66° 50° (NE) 16:30:12 435.950
ITAMSAT 1 03 Jul 16:28:12 16:30:21 12° 276° (W) 16:32:12 435.822/435.867
AO-7 03 Jul 16:44:27 16:52:38 56° 258° (WSW) 17:00:51 29.400- 29.500
STARS 03 Jul 16:44:48 16:49:12 90° 287° (WNW) 16:53:35 437.465
SO-50 03 Jul 16:54:44 16:58:15 21° 113° (ESE) 17:01:58 436.795
O/OREOS (USA 219) 03 Jul 16:58:04 17:02:14 36° 55° (NE) 17:06:26 437.305
YUBILEINY 03 Jul 17:01:56 17:08:47 26° 280° (W) 17:15:21 435.215
JAS-2 03 Jul 17:07:51 17:11:42 20° 272° (W) 17:15:32 435.910
AIST 1 03 Jul 17:08:52 17:12:59 37° 287° (WNW) 17:17:07
CUTE-I 03 Jul 17:13:47 17:17:55 24° 60° (ENE) 17:22:11 437.470
PCSat 03 Jul 17:14:47 17:20:12 76° 305° (NW) 17:25:41 145.827
Cosmos 2491 03 Jul 17:26:05 17:34:24 42° 293° (WNW) 17:42:38 435.465 / 435.565
KKS-1 03 Jul 17:27:18 17:30:56 25° 296° (WNW) 17:34:29 437.445
HORYU 2 03 Jul 17:32:00 17:34:14 13° 273° (W) 17:36:16 437.375
AIST 2 03 Jul 17:34:03 17:38:19 88° 50° (NE) 17:42:29 435.215
MOZHAYETS 4 03 Jul 17:36:44 17:41:20 59° 100° (E) 17:45:57
Cubesat XI-IV 03 Jul 17:46:36 17:51:36 41° 67° (ENE) 17:56:40 437.490
BEESAT 3 03 Jul 17:50:20 17:52:56 16° 247° (WSW) 17:55:22 437.485
BEESAT 2 03 Jul 18:01:12 18:03:47 16° 247° (WSW) 18:06:13 435.950
CUBESAT XI-V 03 Jul 18:03:05 18:04:21 11° 84° (E) 18:05:52 437.345
Cosmos 2504 03 Jul 18:03:56 18:11:30 68° 265° (W) 18:19:35 435.465 / 435.565
HO-68 03 Jul 18:14:51 18:17:36 13° 42° (NE) 18:20:39 435.675
STARS 03 Jul 18:23:04 18:25:02 13° 302° (WNW) 18:26:51 437.465
SO-50 03 Jul 18:33:37 18:38:23 65° 312° (NW) 18:43:19 436.795
O/OREOS (USA 219) 03 Jul 18:37:37 18:41:37 30° 254° (WSW) 18:45:32 437.305
GOMX 1 03 Jul 18:39:42 18:40:32 11° 57° (ENE) 18:41:36 467.674
AO-7 03 Jul 18:45:17 18:47:42 11° 282° (WNW) 18:49:25 29.400- 29.500
CUTE-I 03 Jul 18:52:19 18:57:38 61° 259° (WSW) 19:03:00 437.470
BRITE-PL 03 Jul 18:56:02 19:00:11 24° 64° (ENE) 19:04:15 437.365/2234.400
DANDE 03 Jul 18:58:42 19:01:02 20° 66° (ENE) 19:03:10 436.750
PCSat 03 Jul 19:00:31 19:04:35 20° 328° (NNW) 19:08:34 145.827
AIST 2 03 Jul 19:14:31 19:16:17 12° 250° (WSW) 19:17:51 435.215
MOZHAYETS 4 03 Jul 19:14:48 19:18:11 20° 298° (WNW) 19:21:28
DOVE 4 03 Jul 19:25:46 19:28:39 17° 62° (ENE) 19:31:37 437.250
Cubesat XI-IV 03 Jul 19:27:01 19:31:50 32° 266° (W) 19:36:38 437.490
SEEDS 03 Jul 19:29:52 19:31:10 11° 59° (ENE) 19:32:39 437.485
Cosmos 2491 03 Jul 19:32:38 19:34:33 11° 321° (NW) 19:35:58 435.465 / 435.565
CUBESAT XI-V 03 Jul 19:37:53 19:42:37 87° 103° (ESE) 19:47:18 437.345
GONETS M04 03 Jul 19:39:58 19:47:53 38° 66° (ENE) 19:55:53
CUSAT 1 03 Jul 19:43:03 19:45:46 50° 262° (W) 19:48:17 437.405
AAUSAT CUBESAT 2 03 Jul 19:43:29 19:44:28 11° 58° (ENE) 19:45:38 437.432
HO-68 03 Jul 19:57:03 20:03:48 48° 63° (ENE) 20:10:37 435.675
Cosmos 2504 03 Jul 19:59:58 20:03:43 14° 284° (WNW) 20:07:05 435.465 / 435.565
COMPASS 1 03 Jul 20:06:31 20:09:34 20° 64° (ENE) 20:12:43 437.405
STRAND 1 03 Jul 20:12:01 20:17:10 64° 102° (ESE) 20:22:16 437.568
GOMX 1 03 Jul 20:12:53 20:17:57 64° 74° (ENE) 20:22:43 467.674
CUTE 1.7 + AOD 2 03 Jul 20:13:00 20:16:47 34° 68° (ENE) 20:20:38 437.475
PRISM 03 Jul 20:13:46 20:17:59 65° 102° (ESE) 20:22:08 437.425
CANX-2 03 Jul 20:16:04 20:20:00 40° 69° (ENE) 20:23:59 2200.000
SO-50 03 Jul 20:16:21 20:19:53 19° 335° (NNW) 20:23:24 436.795
CINEMA 3 03 Jul 20:17:02 20:20:25 22° 65° (ENE) 20:23:48 145.822/145.860
Cosmos 2499 03 Jul 20:26:06 20:30:44 17° 54° (NE) 20:35:53 435.465 / 435.565
UWE-3 03 Jul 20:29:10 20:30:42 12° 59° (ENE) 20:32:25 435.000/436.395/437.385
BRITE-PL 03 Jul 20:33:02 20:38:26 58° 260° (W) 20:43:30 437.365/2234.400
DANDE 03 Jul 20:42:19 20:44:01 14° 272° (W) 20:45:31 436.750
PCSat 03 Jul 20:49:25 20:50:13 10° 354° (N) 20:50:59 145.827
AUBIESAT-1 03 Jul 20:51:22 20:52:31 11° 93° (E) 20:53:58 437.475
DOVE 4 03 Jul 21:01:10 21:06:01 72° 257° (WSW) 21:10:36 437.250
SEEDS 03 Jul 21:02:09 21:06:21 88° 70° (ENE) 21:10:34 437.485
DX 1 03 Jul 21:05:21 21:05:41 10° 55° (NE) 21:06:13 434.975-435.025
CUBEBUG 2 03 Jul 21:10:11 21:14:02 35° 69° (ENE) 21:17:53 437.445
AAUSAT CUBESAT 2 03 Jul 21:15:17 21:19:25 84° 77° (ENE) 21:23:37 437.432
ZACube-1 03 Jul 21:16:18 21:19:45 26° 67° (ENE) 21:23:16 437.345
CUBESAT XI-V 03 Jul 21:16:52 21:19:27 14° 302° (WNW) 21:21:51 437.345
M-CUBED/EXP-1 PRIME 03 Jul 21:22:57 21:26:28 26° 101° (E) 21:30:16 437.505
UKube-1 03 Jul 21:25:20 21:27:37 14° 59° (ENE) 21:30:03 .
Oscar 11 03 Jul 21:26:00 21:30:11 53° 72° (ENE) 21:34:24 145.826/435.025
DELFI C3 03 Jul 21:36:27 21:40:17 46° 71° (ENE) 21:44:11 145.870
GONETS M04 03 Jul 21:36:45 21:45:13 57° 269° (W) 21:53:35
AISAT 03 Jul 21:38:00 21:39:54 13° 58° (ENE) 21:41:58 437.250
COMPASS 1 03 Jul 21:40:59 21:44:58 45° 262° (W) 21:49:00 437.405
HUMSAT D 03 Jul 21:41:48 21:44:54 22° 65° (ENE) 21:48:06 437.325/437.525
HO-68 03 Jul 21:45:00 21:51:42 41° 264° (W) 21:58:21 435.675
50 SAT 03 Jul 21:48:42 21:50:30 13° 61° (ENE) 21:52:27 437.505
CUTE 1.7 + AOD 2 03 Jul 21:49:12 21:52:47 26° 267° (W) 21:56:20 437.475
PRISM 03 Jul 21:50:22 21:52:58 16° 300° (WNW) 21:55:26 437.425
STRAND 1 03 Jul 21:52:03 21:55:58 22° 300° (WNW) 21:59:45 437.568
FUNcube-1 03 Jul 21:52:03 21:56:09 57° 73° (ENE) 22:00:14 145.935
CANX-2 03 Jul 21:52:45 21:56:06 22° 268° (W) 21:59:24 2200.000
GOMX 1 03 Jul 21:52:54 21:56:29 18° 271° (W) 21:59:48 467.674
CINEMA 3 03 Jul 21:53:06 21:57:26 44° 262° (W) 22:01:36 145.822/145.860
CUBEBUG 1 03 Jul 21:59:00 22:00:13 11° 57° (ENE) 22:01:40 437.445
SO-50 03 Jul 22:00:33 22:02:20 12° 359° (N) 22:04:06 436.795
UWE-3 03 Jul 22:02:26 22:06:41 86° 256° (WSW) 22:10:54 435.000/436.395/437.385
ESTCUBE 1 03 Jul 22:06:29 22:09:07 16° 60° (ENE) 22:11:54 437.505/2401.250
Cosmos 2499 03 Jul 22:17:46 22:25:29 71° 77° (ENE) 22:33:49 435.465 / 435.565
AUBIESAT-1 03 Jul 22:23:38 22:27:47 89° 292° (WNW) 22:32:15 437.475
VELOX 1 03 Jul 22:25:09 22:29:04 31° 66° (ENE) 22:33:02 145.980
PCSat 03 Jul 22:33:28 22:36:08 14° 20° (NNE) 22:38:55 145.827
